Atlanta Fulton, GA

12:37 PM EST on November 15, 2019 (GMT -0500)
Fulton County-Brown

Weather History for KFTY - September, 2019

Change the Weather History Date:

Tuesday, September 17, 2019

  Actual Average Record
Temperature  
Mean Temperature 82 °F 73 °F  
Max Temperature 96 °F 83 °F 93 °F (2010)
Min Temperature 67 °F 62 °F 48 °F (1999)
Degree Days  
Heating Degree Days 0 0  
Month to date heating degree days 0 0  
Since 1 July heating degree days 0 0  
Cooling Degree Days 17 8  
Month to date cooling degree days 281 168  
Year to date cooling degree days 1997 1605  
Growing Degree Days 30 (Base 50)    
Moisture  
Dew Point 65 °F    
Average Humidity 64    
Maximum Humidity 93    
Minimum Humidity 34    
Precipitation  
Precipitation 0.00 in 0.13 in 1.30 in (1988)
Month to date precipitation 1.61 2.16  
Year to date precipitation 31.90 37.58  
Sea Level Pressure  
Sea Level Pressure 29.96 in    
Wind  
Wind Speed 2 mph (WNW)    
Max Wind Speed 13 mph    
Max Gust Speed 18 mph    
Visibility 10 miles    
Events Thunderstorm    
T = Trace of Precipitation, MM = Missing Value Source: NWS Daily Summary

Daily Weather History Graph

Daily Weather History Graph

Search for Another Location

Airport or City:

Astronomy

Sep. 17, 2019 Rise Set
Actual Time 7:22 AM EDT 7:42 PM EDT
Civil Twilight 6:57 AM EDT 8:07 PM EDT
Nautical Twilight 6:28 AM EDT 8:36 PM EDT
Astronomical Twilight 5:58 AM EDT 9:05 PM EDT
Moon 9:53 PM EDT (9/17) 10:18 AM EDT (9/17)
Length of Visible Light 13h 09m
Length of Day
12h 19m
Waning Gibbous, 89% of the Moon is Illuminated
Sep 17
Waning Gibbous
Sep 21
Last Quarter
Sep 28
New
Oct 5
First Quarter
Oct 13
Full

Hourly Weather History & Observations

Time (EDT) Temp. Heat Index Dew Point Humidity Pressure Visibility Wind Dir Wind Speed Gust Speed Precip Events Conditions
12:53 AM 71.1 °F - 66.0 °F 84% 29.99 in 10.0 mi Calm Calm - N/A   Clear
1:53 AM 70.0 °F - 66.9 °F 90% 29.99 in 10.0 mi Calm Calm - N/A   Clear
2:53 AM 69.1 °F - 64.9 °F 87% 29.97 in 10.0 mi Calm Calm - N/A   Clear
3:53 AM 68.0 °F - 64.9 °F 90% 29.96 in 10.0 mi Calm Calm - N/A   Clear
4:53 AM 68.0 °F - 64.9 °F 90% 29.96 in 10.0 mi Calm Calm - N/A   Clear
5:53 AM 66.9 °F - 64.0 °F 90% 29.97 in 10.0 mi Calm Calm - N/A   Clear
6:53 AM 66.9 °F - 64.0 °F 90% 29.98 in 10.0 mi Calm Calm - N/A   Clear
7:53 AM 69.1 °F - 64.0 °F 84% 30.00 in 10.0 mi Calm Calm - N/A   Clear
8:53 AM 75.0 °F - 66.0 °F 73% 30.01 in 10.0 mi Calm Calm - N/A   Clear
9:53 AM 80.1 °F 81.9 °F 64.9 °F 60% 30.01 in 10.0 mi Calm Calm - N/A   Clear
10:53 AM 84.9 °F 86.6 °F 64.9 °F 51% 30.02 in 10.0 mi Calm Calm - N/A   Clear
11:53 AM 90.0 °F 91.3 °F 64.0 °F 42% 30.01 in 10.0 mi Calm Calm - N/A   Clear
12:53 PM 91.9 °F 93.3 °F 64.0 °F 39% 29.99 in 10.0 mi Variable 3.5 mph - N/A   Clear
1:53 PM 93.0 °F 94.6 °F 64.0 °F 38% 29.97 in 10.0 mi Variable 6.9 mph - N/A   Clear
2:53 PM 93.9 °F 95.2 °F 63.0 °F 36% 29.95 in 10.0 mi WNW 5.8 mph - N/A   Clear
3:53 PM 95.0 °F 96.0 °F 63.0 °F 34% 29.93 in 10.0 mi WNW 10.4 mph - N/A   Clear
4:53 PM 95.0 °F 96.0 °F 63.0 °F 34% 29.91 in 10.0 mi NW 10.4 mph 17.3 mph N/A   Partly Cloudy
5:53 PM 93.9 °F 94.8 °F 62.1 °F 35% 29.91 in 10.0 mi NW 5.8 mph - N/A   Clear
6:53 PM 89.1 °F 91.0 °F 64.9 °F 45% 29.91 in 10.0 mi NW 3.5 mph - N/A   Partly Cloudy
7:53 PM 87.1 °F 89.2 °F 66.0 °F 49% 29.91 in 10.0 mi Calm Calm - N/A   Scattered Clouds
8:53 PM 86.0 °F 87.6 °F 64.9 °F 49% 29.92 in 10.0 mi Variable 5.8 mph - N/A   Overcast
9:20 PM 84.0 °F 85.4 °F 64.0 °F 51% 29.95 in 10.0 mi Calm Calm - N/A Thunderstorm Overcast
9:35 PM 84.0 °F 85.4 °F 64.0 °F 51% 29.96 in 10.0 mi Calm Calm - N/A   Mostly Cloudy
9:53 PM 82.0 °F 84.1 °F 66.0 °F 58% 29.94 in 10.0 mi Calm Calm - N/A   Mostly Cloudy
10:53 PM 77.0 °F - 68.0 °F 74% 29.95 in 10.0 mi Calm Calm - N/A   Clear
11:53 PM 75.9 °F - 69.1 °F 79% 29.95 in 10.0 mi Calm Calm - N/A   Scattered Clouds